Theta_e
302 309 329 334 335 334 335 331 329 330 334 335 337 338 339 337 337 338 340 342 344 343 338 337 336 334 333 332 330 328 327 328 327 326 326 324 327 327 329 332 331 330 331
302 324 329 332 333 333 331 328 330 330 333 335 337 338 337 338 341 341 340 342 342 338 337 333 333 332 330 328 327 326 323 323 324 323 318 315 318 319 324 327 327 328 329
300 323 327 329 331 329 328 329 331 332 333 335 335 335 334 332 329 330 330 332 338 337 334 332 330 329 327 326 325 325 324 322 320 320 320 314 311 315 320 324 324 326 327
306 323 325 326 327 325 329 331 332 333 334 335 334 333 331 324 323 322 324 324 327 329 334 334 333 332 331 329 329 327 325 320 317 319 319 319 319 314 313 320 324 328 328
316 322 323 324 325 327 327 327 328 329 334 334 332 325 319 318 317 319 318 318 319 320 319 319 318 317 317 318 318 319 321 322 321 319 320 320 321 320 316 314 319 325 328
320 321 323 322 320 321 320 321 321 319 321 323 323 320 318 316 315 315 314 315 314 314 316 316 315 315 314 314 314 314 315 314 315 316 317 317 316 316 314 313 313 314 318
319 319 320 319 318 317 318 319 317 316 318 319 318 318 316 315 314 314 313 313 312 311 312 313 313 313 314 313 311 311 311 311 310 310 310 312 311 312 312 310 308 308 311
318 318 317 316 316 316 318 317 316 315 317 317 317 316 315 314 313 313 312 311 310 310 312 311 311 310 310 310 308 307 307 308 306 306 306 305 307 309 310 308 305 300 303
313 313 315 315 315 314 315 316 314 314 315 315 314 313 315 314 313 312 311 310 310 311 310 309 308 308 308 308 308 306 306 306 306 306 305 304 306 307 307 308 307 303 296
311 311 311 311 311 312 312 313 313 311 311 312 313 311 311 311 310 310 309 309 310 309 308 308 307 307 307 307 307 306 306 305 305 306 306 306 305 305 305 305 305 304 302
309 309 309 309 311 311 310 309 309 310 309 310 310 310 310 310 310 309 309 309 309 308 307 307 307 307 307 308 307 306 306 306 306 306 306 306 307 305 305 304 304 303 303
308 307 307 308 307 306 306 306 307 307 308 309 309 308 309 309 308 308 308 309 307 307 306 307 307 307 307 307 306 305 306 305 305 306 306 305 307 307 306 305 304 304 304
305 303 304 304 303 304 304 304 305 304 305 305 304 304 305 307 306 306 306 307 306 306 306 306 306 306 306 306 306 306 305 305 306 306 306 306 306 305 305 305 304 304 304
303 303 302 302 301 302 302 302 301 301 302 301 300 300 301 302 303 303 304 304 305 304 305 305 305 305 305 305 306 306 307 306 306 307 307 307 306 306 305 305 305 305 303
302 301 300 299 299 299 299 299 299 299 299 298 298 297 299 300 301 301 302 302 302 303 303 303 304 304 304 306 305 305 303 302 303 303 304 306 307 309 309 307 306 306 304
301 300 300 299 298 297 296 297 295 295 297 296 296 297 297 298 298 299 300 301 301 301 302 302 303 303 304 301 302 301 299 299 299 299 301 303 305 306 306 307 307 307 304
300 300 299 297 296 295 294 293 293 294 293 293 294 294 295 295 296 297 298 299 299 299 300 301 302 303 302 299 297 298 297 297 298 298 299 300 302 303 303 303 304 305 305
298 297 295 295 294 293 292 292 293 292 291 291 292 293 293 294 295 296 297 297 298 299 299 301 303 301 300 297 295 296 296 295 297 297 298 298 299 301 301 301 301 302 303
295 294 294 292 292 292 291 291 291 291 290 289 290 291 293 294 295 296 297 298 298 299 301 300 299 297 295 295 294 294 294 294 294 296 297 298 299 299 297 299 299 301 304
294 293 292 292 290 290 291 290 289 290 289 289 289 290 293 293 294 296 296 296 297 297 298 297 295 294 293 293 293 293 292 291 292 294 297 298 298 296 295 297 299 298 300
293 292 291 289 289 290 290 289 288 288 290 290 290 290 291 293 295 295 293 293 292 293 294 293 292 292 291 292 292 292 291 291 291 293 296 299 297 295 294 294 299 295 296
292 292 290 289 288 288 288 287 287 289 290 290 290 290 291 293 295 293 292 290 290 290 292 290 290 291 292 292 291 291 291 292 292 294 297 298 295 293 293 294 292 293 297
291 290 288 286 286 287 287 286 286 288 289 289 289 290 292 293 293 291 290 288 289 288 288 288 288 289 290 290 290 291 291 292 293 295 296 295 293 293 295 293 293 293 294
290 288 287 286 285 285 286 286 287 288 288 288 288 289 290 292 292 292 290 288 287 287 287 287 287 287 288 288 289 290 291 291 292 293 294 294 293 293 293 293 292 293 292
287 287 285 285 284 285 285 286 287 287 287 287 288 288 288 289 290 292 291 289 289 288 286 286 287 286 285 286 288 288 289 290 290 292 291 291 291 291 290 291 291 291 290
285 285 284 284 284 285 285 286 287 287 287 286 286 287 288 288 289 289 290 291 290 289 287 288 288 286 287 287 287 288 289 289 289 290 288 287 287 287 287 287 287 288 288
Wind_Speed
12 10 12 9 7 5 7 8 10 7 5 2 3 2 2 3 3 3 4 5 8 4 6 3 3 3 4 3 3 2 2 1 1 2 3 3 6 6 5 5 6 7 7
5 6 10 12 13 11 8 7 7 9 6 3 3 3 3 2 3 5 4 2 5 2 5 4 3 3 3 3 2 1 1 0 1 1 1 4 5 3 2 3 4 7 6
10 9 13 15 11 12 11 10 8 8 7 6 6 4 5 5 4 4 3 3 5 6 4 4 3 4 3 3 2 1 1 1 1 2 1 2 4 4 2 3 4 5 6
8 9 11 11 11 7 7 8 7 7 7 7 6 6 3 5 2 2 3 3 7 7 7 6 6 5 4 4 2 2 0 1 1 2 1 3 2 3 7 2 5 6 7
5 6 7 8 8 5 7 8 8 6 6 6 7 6 5 5 4 5 7 6 6 9 10 9 8 7 5 5 5 4 4 1 1 0 2 2 3 7 7 10 12 6 5
10 11 12 12 11 8 9 6 10 7 7 8 5 10 15 11 7 5 6 5 5 6 7 7 6 6 5 5 4 4 5 4 3 2 3 3 3 3 4 7 9 13 10
10 12 13 12 11 13 17 15 13 9 8 14 8 7 10 9 9 6 5 5 3 3 5 5 6 5 5 5 5 4 4 3 2 3 3 2 4 4 6 7 9 9 10
10 9 14 14 14 15 15 21 13 11 10 14 11 6 9 6 6 6 5 3 4 4 5 5 5 6 5 3 3 2 2 2 3 5 4 5 5 5 5 5 7 12 10
12 11 11 9 10 16 16 23 16 13 6 7 9 10 7 7 6 6 6 4 4 3 4 4 5 4 4 4 4 3 4 4 4 6 6 5 6 6 6 5 6 8 12
14 12 10 7 12 12 14 12 10 13 12 7 5 7 6 6 6 5 6 5 3 3 4 4 4 4 4 4 4 4 5 6 5 5 7 7 7 7 7 7 8 8 10
13 11 10 10 10 9 8 14 9 11 11 8 5 7 6 6 5 4 4 4 3 3 4 4 4 4 4 4 4 5 6 6 7 7 8 9 9 8 8 7 8 9 9
12 11 12 12 10 8 9 11 10 10 8 5 6 6 5 5 5 4 4 3 3 1 1 1 3 4 5 5 5 6 7 7 8 10 9 11 8 9 9 8 11 10 11
14 12 11 10 10 9 6 7 10 10 8 8 7 6 5 4 4 4 3 3 3 2 1 2 4 5 5 6 6 6 7 8 8 9 10 12 11 12 10 10 10 10 9
13 12 12 11 12 9 8 7 10 10 8 9 7 7 7 6 5 5 5 4 3 2 3 3 4 5 6 6 6 7 8 9 9 10 11 13 13 14 13 11 12 11 10
14 12 12 11 12 7 7 9 8 8 7 8 7 7 6 6 6 6 4 4 3 3 3 4 5 5 4 5 8 8 8 10 11 11 12 12 16 23 19 12 13 13 11
16 14 13 13 11 8 6 7 7 8 6 7 6 5 5 6 6 5 5 4 4 4 4 4 4 5 5 8 9 11 9 11 11 12 13 13 18 14 18 20 21 19 15
19 14 12 11 9 7 4 8 6 4 7 7 7 7 7 6 4 4 4 4 4 4 4 5 5 6 6 9 12 16 10 10 10 11 12 13 11 16 12 17 21 21 23
14 13 12 11 9 6 5 8 5 8 9 8 8 6 4 3 4 4 4 4 3 4 4 4 4 5 5 12 12 17 11 10 11 11 13 13 14 13 15 16 19 18 16
13 12 11 10 8 6 6 6 6 7 8 6 5 4 4 3 4 5 6 5 4 3 5 5 7 7 8 12 13 15 11 11 12 12 13 13 14 18 18 17 16 15 14
14 13 11 10 7 4 5 5 6 6 5 5 4 3 4 5 6 6 7 6 6 5 4 6 7 10 9 12 13 15 9 11 10 12 12 12 12 18 23 15 13 13 15
16 12 10 9 6 4 7 8 5 7 4 4 3 5 5 5 6 6 5 7 7 6 6 7 7 8 10 11 14 18 10 8 9 9 10 10 18 23 23 18 10 15 18
13 11 10 8 6 4 9 7 7 4 5 7 7 6 5 5 6 7 7 7 7 7 6 8 8 8 9 14 14 18 16 16 9 9 9 11 20 23 18 14 21 23 17
11 9 9 9 6 6 6 7 4 5 5 5 6 6 5 7 7 8 8 7 8 7 7 8 8 8 9 8 18 16 18 16 10 8 13 17 18 16 11 17 19 17 11
10 7 8 9 7 6 6 3 3 3 3 4 4 5 7 6 6 5 6 6 6 6 6 8 8 8 8 9 10 9 9 14 11 14 10 13 14 11 13 13 12 10 10
7 7 9 7 5 4 4 4 4 3 4 3 3 3 4 5 5 4 3 4 7 9 7 8 8 8 9 11 17 13 9 11 13 12 8 9 11 12 13 12 13 11 12
8 9 7 6 5 5 4 4 4 4 5 6 4 3 3 3 4 4 5 7 9 13 17 13 12 8 14 20 21 19 15 15 18 7 8 10 11 12 12 13 13 11 16
Wind_Direction
258 169 186 186 174 171 160 156 141 143 135 107 107 106 123 107 130 112 27 343 312 164 122 158 180 155 171 176 149 160 213 290 265 314 297 283 261 270 269 263 273 291 290
235 143 167 177 186 182 164 147 143 145 153 155 143 152 142 154 140 110 104 49 275 10 130 177 169 161 120 118 140 113 127 307 348 287 280 314 324 321 280 289 291 292 303
200 164 173 187 174 180 174 160 150 149 154 168 124 85 100 77 73 91 129 205 157 113 132 127 123 118 106 118 136 138 81 311 329 246 196 298 260 327 329 311 317 317 311
180 176 171 180 170 168 144 135 144 148 156 148 132 149 144 129 105 112 125 79 70 83 102 114 107 100 88 78 70 102 163 153 267 312 276 262 266 294 314 258 304 300 303
149 124 114 106 97 110 126 112 108 111 124 142 144 122 89 90 110 118 112 91 81 76 73 70 70 71 69 72 63 52 51 50 356 353 322 276 237 237 255 283 297 284 292
101 103 104 99 88 74 66 59 96 71 71 69 64 128 134 132 122 105 89 70 63 61 61 70 72 70 63 55 45 39 40 29 19 348 310 294 315 349 303 294 293 295 304
131 128 122 108 100 88 73 49 30 63 81 94 85 105 101 97 103 101 98 89 71 60 56 57 53 55 53 51 50 38 28 18 350 332 306 278 278 286 286 292 293 285 294
122 124 121 117 111 102 110 83 26 26 33 92 105 66 68 89 90 93 94 93 77 55 57 61 59 54 46 34 34 9 336 333 315 298 288 291 281 278 273 285 299 298 286
104 102 103 103 119 108 97 123 160 109 53 52 72 77 79 93 100 91 86 77 83 101 85 71 58 43 25 12 5 341 322 320 306 294 287 281 282 282 278 269 265 276 295
107 103 91 104 88 85 108 113 114 113 110 100 86 89 97 90 93 91 99 106 108 95 68 48 35 17 5 350 334 309 299 296 294 291 282 285 284 284 276 269 266 261 272
114 108 103 88 88 96 101 108 86 97 99 98 109 117 113 107 106 106 116 133 110 69 38 20 359 340 324 314 301 289 289 288 290 281 274 276 268 267 267 261 263 267 268
108 117 115 112 106 97 90 91 106 97 85 100 89 79 92 98 100 84 68 71 88 57 343 340 328 314 306 303 297 298 299 295 288 287 286 282 282 275 271 267 267 264 266
116 112 100 88 80 70 58 73 108 86 88 72 67 52 50 70 73 80 85 105 129 106 20 339 315 305 308 308 307 301 297 291 292 290 295 293 289 285 284 277 274 272 267
116 108 94 86 70 59 60 67 66 70 69 73 68 64 50 54 60 70 64 57 39 22 346 332 314 314 318 315 316 314 312 309 297 291 287 287 285 281 288 281 273 273 271
118 102 91 88 86 71 52 47 60 76 71 77 68 51 43 49 49 45 28 14 11 345 328 325 326 332 331 339 341 335 327 315 309 303 299 291 286 288 287 287 285 281 276
116 108 101 87 69 62 69 81 60 59 73 75 73 57 42 40 33 14 356 346 345 333 333 337 342 342 349 345 357 349 329 318 307 309 309 297 303 303 304 300 295 285 282
125 121 112 101 97 80 91 73 66 73 66 64 57 43 30 26 7 349 336 336 326 319 331 336 350 350 353 7 357 349 328 313 308 305 304 306 310 312 307 306 298 289 280
116 110 107 103 97 106 85 81 67 60 52 40 35 26 12 6 3 2 353 337 325 335 336 341 4 6 5 2 355 345 332 316 310 311 304 301 307 309 309 311 300 288 279
103 95 97 98 92 89 81 82 74 67 54 37 23 355 343 5 12 10 1 4 345 344 2 32 16 5 353 351 346 348 333 321 318 316 310 308 309 309 315 315 306 298 288
101 106 100 97 94 87 89 86 79 74 53 31 14 355 6 12 20 15 16 359 357 358 359 19 13 5 350 343 344 353 332 324 323 319 317 312 312 320 326 321 319 323 314
115 113 108 105 110 131 121 90 74 56 31 26 18 29 25 12 29 43 24 15 6 3 14 9 1 2 356 346 353 344 337 326 319 316 324 331 331 331 325 323 326 322 311
109 108 106 104 99 85 79 74 59 21 29 28 25 20 20 33 47 44 29 21 17 14 10 4 359 4 360 358 349 338 335 333 325 324 329 324 325 323 318 334 330 335 329
113 115 112 89 65 57 63 61 17 24 34 34 27 24 42 47 49 50 40 27 19 19 13 10 2 359 359 353 349 342 343 346 342 341 331 326 325 321 330 344 344 343 342
113 110 93 79 64 46 50 52 20 26 68 58 31 30 41 41 48 62 68 57 35 22 17 10 3 360 357 358 351 348 347 350 347 344 341 335 331 333 346 350 351 349 346
98 91 84 78 72 62 52 24 18 52 71 75 47 58 55 45 42 57 76 69 60 49 28 20 8 358 360 354 348 353 352 353 344 339 346 348 352 355 355 353 353 350 350
97 88 89 82 60 58 40 25 28 55 69 58 47 58 50 46 50 49 55 60 73 58 36 27 27 12 7 0 358 355 349 353 352 0 0 354 354 353 351 348 345 348 348